Location: Barbonval
(49.3581°N, 3.6724°E)
Time: 12:12:12
(UTC+00:00)

Daily predictions for brighter satellites

Satellite Brightness Start Highest point End
(mag) Time Altitude Azimuth Time Altitude Azimuth Time Altitude Azimuth
USA 267 3.6 19:42:18 10° ENE 19:48:28 42° SE 19:54:36 10° SSW
Cosmos 1821 Rocket 4.3 19:46:56 10° SSE 19:52:44 47° E 19:58:39 10° NNE
Shenzhou-11 Module 3.3 19:52:05 10° SW 19:53:45 17° S 19:55:24 10° SE
COSMOS 2406 3.4 19:48:54 10° S 19:54:25 49° ESE 19:59:56 10° NE
Cosmos 1743 Rocket 3.7 19:51:16 10° SSW 19:55:43 82° W 20:00:14 10° N
CZ-2C R/B 3.8 19:51:23 10° NNE 19:55:59 57° E 20:00:27 10° S
SL-16 R/B 4.2 19:52:45 10° N 19:56:30 17° NE 20:00:13 10° ENE
Cosmos 2366 rocket 4.3 19:50:22 10° SSW 19:56:37 76° W 20:02:50 10° N
Intercosmos 25 3.6 19:52:45 10° N 19:57:30 53° ENE 20:00:53 10° SSE
Lacrosse 5 3.1 19:54:57 10° WNW 19:59:40 37° N 20:04:23 10° ENE
ERS-1 Rocket 4.4 19:56:40 10° ESE 20:00:34 23° ENE 20:04:29 10° N
Cosmos 2369 4.0 19:56:41 10° NNW 20:02:23 60° ENE 20:08:02 10° SE
Cosmos 1862 3.3 19:59:56 10° S 20:03:56 67° E 20:07:59 10° NNE
Sich 1 3.4 20:00:40 10° SSE 20:04:54 46° E 20:09:10 10° NNE
SJ-6B 4.4 20:02:32 10° SSW 20:06:19 37° W 20:10:05 10° NNW
Meteor 2-6 Rocket 4.4 20:01:03 10° NNW 20:06:33 77° W 20:12:09 10° S
Cosmos 1818 3.6 20:01:32 10° NW 20:07:02 86° NE 20:12:24 10° SE
BREEZE-M DEB (TANK) 1.8 20:04:05 10° W 20:07:46 82° S 20:09:43 10° E
IRIDIUM 106 4.3 20:03:39 10° S 20:08:50 75° E 20:14:04 10° N
Cosmos 2082 Rocket 3.1 20:04:56 10° SSE 20:09:43 29° ESE 20:14:30 10° NE
Cosmos 2278 4.2 20:06:03 10° NNW 20:11:37 49° NE 20:16:44 12° SE
Cosmos 2123 Rocket 4.4 20:06:08 10° N 20:12:08 48° ENE 20:18:06 10° SSE
Cosmos 1500 Rocket 4.4 20:10:56 10° SSW 20:15:09 54° WNW 20:19:25 10° N
Spot 2 Rocket 3.9 20:11:25 10° SE 20:16:19 50° ENE 20:21:16 10° N
Cosmos 2322 Rocket 4.1 20:15:02 10° N 20:19:07 20° NE 20:23:12 10° E
Meteor 1-4 Rocket 3.1 20:16:35 10° N 20:19:55 39° ENE 20:22:26 15° SE
Resurs 1-3 4.3 20:15:43 10° S 20:20:01 54° W 20:24:21 10° NNW
Cosmos 2239 Rocket 4.5 20:15:57 10° S 20:22:00 65° E 20:28:06 10° NNE
Cosmos 1190 Rocket 4.4 20:17:31 10° S 20:22:28 43° ESE 20:27:29 10° NE
Cosmos 1184 Rocket 4.3 20:21:02 15° SE 20:22:30 20° E 20:25:01 10° NE
CZ-2C R/B 3.3 20:18:36 10° N 20:23:41 56° WNW 20:28:44 10° SSW
Terra 3.3 20:21:08 12° ESE 20:24:28 23° ENE 20:28:10 10° N
USA 234 3.3 20:18:46 11° ESE 20:25:06 82° NNE 20:31:40 10° WNW
Cosmos 407 Rocket 3.6 20:20:11 10° S 20:25:22 56° ESE 20:30:33 10° NNE
Cosmos 1666 Rocket 3.7 20:22:19 10° S 20:26:29 50° E 20:30:41 10° NNE
Cosmos 1238 Rocket 4.0 20:28:02 14° E 20:28:29 15° E 20:30:15 10° NE
Meteor 1-27 Rocket 3.9 20:24:42 10° NNW 20:30:39 88° E 20:36:36 10° S
MetOp-B 4.1 20:25:55 10° SSE 20:31:17 85° ENE 20:36:41 10° NNW
Cosmos 2360 Rocket 4.3 20:29:35 10° N 20:33:03 16° NNE 20:36:29 10° ENE
BREEZE-M DEB (TANK) 4.1 20:33:15 10° W 20:36:32 16° WSW 20:38:37 10° SSW
ERBS 3.8 20:33:55 10° W 20:37:04 38° NNW 20:40:12 10° NE
USA 238 DEB 4.3 20:32:34 10° S 20:38:11 30° ESE 20:43:58 10° NE
Cosmos 1805 Rocket 4.1 20:33:51 10° SSW 20:38:14 64° WNW 20:42:41 10° N
USA 238 4.4 20:32:42 10° S 20:38:18 30° ESE 20:44:04 10° NE
SPOT 5 3.5 20:35:55 17° ESE 20:38:39 35° ENE 20:42:37 10° N
Cosmos 1980 Rocket 2.3 20:37:11 10° NNW 20:42:53 72° ENE 20:47:05 19° SE
SPOT 1/Viking Rocket 3.6 20:39:53 15° SSE 20:44:10 71° ENE 20:49:24 10° N
SL-4 R/B 2.2 20:44:01 10° SW 20:47:43 40° SSE 20:51:11 10° ENE
Genesis I 3.2 20:44:36 10° NW 20:48:29 71° NE 20:50:44 24° SE
BREEZE-M DEB (TANK) 2.4 20:45:50 10° WSW 20:48:32 83° S 20:55:35 10° E
Cosmos 405 Rocket 3.8 20:49:21 22° ESE 20:50:15 24° E 20:53:20 10° NE
Cosmos 1140 Rocket 3.4 20:45:48 10° SSW 20:51:00 71° ESE 20:56:15 10° NNE
ATLAS 5 CENTAUR R/B 3.6 20:46:10 10° WNW 20:51:21 34° WSW 20:57:14 10° S
Cosmos 1023 Rocket 4.4 20:50:15 10° SSW 20:55:31 79° ESE 21:00:49 10° NNE
Cosmos 1812 4.5 20:53:50 10° NNW 20:57:14 30° W 21:00:36 10° SSW
USA 32 4.1 20:53:02 15° SSE 20:57:15 61° E 21:02:25 10° NNE
Cosmos 1697 Rocket 3.3 20:53:04 10° NW 20:58:32 53° WSW 21:03:04 15° S
Cosmos 1633 Rocket 3.0 20:55:19 10° S 20:59:45 90° WNW 21:04:12 10° N
Cosmos 1833 Rocket 2.8 20:54:31 10° SSW 21:00:08 80° WNW 21:05:49 10° NNE
Cosmos 1867 3.6 21:01:12 10° SSW 21:06:29 54° ESE 21:11:48 10° NE
Meteor 1-18 Rocket 4.4 21:01:08 10° N 21:06:39 55° ENE 21:09:50 25° SE
CENTAUR R/B 3.4 21:04:45 22° SE 21:06:49 27° ESE 21:12:22 10° ENE
Okean 1-7 3.9 21:02:52 10° N 21:06:52 34° ENE 21:08:30 25° ESE
Resurs 01 Rocket 3.5 21:06:29 10° SSW 21:10:13 27° W 21:14:00 10° NW
Landsat 7 4.4 21:08:59 15° S 21:12:47 55° W 21:17:28 10° NNW
FALCON 9 DEB 3.3 21:10:04 10° SW 21:13:26 47° SSE 21:15:22 22° E
Meteor 2-4 Rocket 4.4 21:10:54 10° N 21:16:14 39° ENE 21:18:54 25° ESE
deb Kosmos-1763 4.0 21:14:16 14° SSW 21:17:19 87° WNW 21:21:00 10° NNE
Cosmos 1515 4.3 21:13:40 10° N 21:17:20 42° ENE 21:18:22 33° ESE
Cosmos 676 Rocket 4.0 21:14:35 10° SSW 21:19:53 78° ESE 21:25:16 10° NNE
Cosmos 192 4.4 21:15:23 10° NNW 21:20:17 72° WSW 21:22:57 27° S
ATLAS 5 CENTAUR R/B 3.0 21:18:18 10° NNW 21:20:34 30° NE 21:23:25 16° E
Meteor 1-25 Rocket 4.1 21:17:53 17° S 21:22:13 78° E 21:27:51 10° NNE
Cosmos 1470 Rocket 3.5 21:19:31 21° S 21:22:28 88° E 21:26:54 10° N
Cosmos 1934 Rocket 4.4 21:18:14 10° SSW 21:24:33 66° WNW 21:30:56 10° N
Aureole 1 Rocket 4.4 21:18:55 10° SSW 21:25:47 89° WNW 21:34:10 10° NNE
GP-B 3.8 21:22:49 10° N 21:27:09 52° W 21:30:41 15° SSW
USA 267 3.4 21:25:15 10° ENE 21:31:48 78° NNW 21:38:21 10° WSW
NOSS 3-2 (A) 3.3 21:26:51 10° SSW 21:32:28 62° SE 21:38:56 10° NE
Cosmos 921 Rocket 3.0 21:29:02 10° NNW 21:33:16 70° WSW 21:34:51 36° S
NOSS 3-2 (C) 3.7 21:35:51 28° S 21:38:29 44° ESE 21:44:35 10° NE
ERS-1 Rocket 3.3 21:36:09 25° S 21:38:59 59° WSW 21:43:59 10° NNW
Cosmos 841 Rocket 4.2 21:34:51 10° NNW 21:39:52 44° ENE 21:42:00 29° ESE
SAR-Lupe-2 3.7 21:36:57 10° N 21:40:32 74° WNW 21:41:55 35° SSW
Cosmos 540 Rocket 4.2 21:36:21 10° NNW 21:41:18 43° ENE 21:43:22 29° ESE
SL-16 R/B 2.4 21:36:06 10° NNW 21:41:46 65° ENE 21:44:17 33° SE
Lacrosse 5 1.9 21:38:07 10° NW 21:43:13 76° NNE 21:45:31 33° ESE
Cosmos 468 Rocket 4.0 21:38:13 10° NNW 21:43:35 90° SW 21:45:45 37° SSE
Cosmos 1741 Rocket 4.1 21:48:23 38° SSE 21:50:06 55° ESE 21:55:17 10° NNE
Cosmos 1570 Rocket 4.4 21:45:58 10° NNW 21:51:13 55° ENE 21:53:10 35° ESE
Cosmos 2219 Rocket 4.2 21:48:08 10° N 21:52:22 21° NE 21:56:35 10° E
Cosmos 2082 Rocket 2.9 21:47:54 10° SW 21:53:30 56° NW 21:59:06 10° NNE
Terra 2.3 22:00:02 34° SSW 22:01:53 55° W 22:06:35 10° NNW
Aureole 2 4.4 22:03:02 72° SW 22:03:22 85° WNW 22:07:20 10° NNE
Cosmos 1933 Rocket 4.3 22:01:23 24° SW 22:03:46 51° WNW 22:08:07 10° N
Cosmos 2322 Rocket 2.2 21:58:26 10° NNW 22:04:09 77° ENE 22:06:13 41° SE
Okean 1 4.4 22:02:04 10° NNW 22:05:52 40° W 22:07:07 31° SW
Cosmos 1238 Rocket 4.1 22:06:54 20° WSW 22:07:52 24° WNW 22:10:23 10° NNW
Cosmos 2100 Rocket 3.9 22:05:35 36° S 22:08:16 77° E 22:14:25 10° NNE
USA 234 4.0 22:06:06 29° S 22:08:31 38° SW 22:14:33 10° WNW
Cosmos 1437 Rocket 3.2 22:06:35 10° NNW 22:10:17 49° W 22:10:50 45° SW
Meteor 1-11 Rocket 4.2 22:09:09 38° ESE 22:10:20 43° E 22:15:43 10° NNE
Cosmos 1242 Rocket 4.1 22:09:13 10° NNE 22:12:07 25° ENE 22:12:07 25° ENE
Cosmos 1869 Rocket 3.5 22:13:01 59° S 22:13:51 86° E 22:18:20 10° N
SPOT 5 4.2 22:15:08 21° SW 22:16:49 27° W 22:20:33 10° NW
Cosmos 2360 Rocket 2.5 22:12:43 10° NNW 22:18:20 57° NE 22:20:20 38° ESE
COSMOS 2428 4.4 22:14:13 10° NNW 22:19:01 26° NE 22:22:37 15° E
MTI 4.3 22:15:59 10° NNE 22:18:29 54° N 22:18:29 54° N
ATLAS 3B R/B 3.2 22:21:12 35° ESE 22:21:36 35° ESE 22:27:31 10° NE
Geosat 3.9 22:20:48 52° SSE 22:22:04 85° WSW 22:27:09 10° NNW
Iridium 4 Rocket 3.0 22:21:45 61° SSW 22:22:27 83° W 22:26:43 10° N
Cosmos 2173 Rocket 3.9 22:21:11 37° S 22:23:49 89° W 22:30:00 10° N
Cosmos 1500 3.1 22:25:10 73° W 22:25:15 73° W 22:29:00 10° N
CRYOSAT 2 4.4 22:21:13 10° N 22:26:04 62° E 22:26:46 55° SE
Cosmos 405 Rocket 4.5 22:24:29 19° WSW 22:26:10 27° WNW 22:29:25 10° N
Cosmos 1980 Rocket 4.0 22:22:09 10° NW 22:26:18 21° W 22:28:51 16° SW
SL-4 R/B 1.8 22:23:26 10° W 22:27:12 71° NNW 22:27:12 71° NNW
ALOS 2 3.4 22:27:44 37° E 22:28:19 38° ENE 22:32:23 10° N
USA 238 DEB 3.9 22:21:55 10° SW 22:28:35 72° NW 22:35:34 10° NE
USA 238 3.8 22:22:02 10° SW 22:28:41 73° NW 22:35:41 10° NE
Cosmos 1725 Rocket 4.1 22:27:20 43° SSE 22:29:09 60° E 22:35:23 10° NNE
Cosmos 1763 Rocket 4.2 22:24:38 10° NW 22:29:42 45° WSW 22:31:09 36° SW
Cosmos 1674 Rocket 4.2 22:28:52 10° N 22:33:00 41° ENE 22:33:13 41° E
SL-08 R/B 4.4 22:32:19 47° SSE 22:33:59 66° E 22:40:02 10° NNE
Cosmos 1536 3.3 22:34:39 49° ENE 22:34:39 49° ENE 22:38:05 10° NNE
Cosmos 1666 3.0 22:37:32 56° NE 22:37:32 56° NE 22:40:42 10° NNE
Cosmos 2333 Rocket 3.2 22:33:19 10° NNW 22:38:45 39° NE 22:41:19 26° E
Cosmos 1356 4.4 22:41:30 41° NE 22:41:30 41° NE 22:43:55 10° NNE
Cosmos 1271 Rocket 4.1 22:37:42 10° N 22:40:47 27° ENE 22:40:47 27° ENE
Meteor 1-13 Rocket 4.2 22:36:29 10° NNW 22:42:02 75° W 22:43:23 52° SSW
Cosmos 2016 Rocket 3.9 22:39:51 44° S 22:42:02 87° E 22:48:27 10° N
Cosmos 2237 Rocket 4.4 22:38:27 10° N 22:42:27 19° NE 22:46:25 10° E
Meteor 1-5 Rocket 4.4 22:40:38 40° SSW 22:42:55 77° WNW 22:48:55 10° N
Cosmos 2061 Rocket 3.9 22:41:23 45° S 22:43:27 88° E 22:49:41 10° N
Lacrosse 4 Rocket 3.4 22:45:23 17° ENE 22:45:23 17° ENE 22:46:54 10° ENE
MOS 1-B Rocket 3.7 22:39:09 10° NNE 22:44:55 86° WNW 22:46:43 46° SSW
Cosmos 1459 Rocket 4.3 22:42:36 33° SSW 22:45:32 65° WNW 22:51:53 10° N
Cosmos 2221 Rocket 3.6 22:41:39 10° NNW 22:46:08 71° W 22:46:28 67° SW
Okean 3 3.9 22:46:05 10° NNW 22:50:14 51° W 22:50:30 50° WSW
Cosmos 1733 Rocket 3.0 22:50:59 69° E 22:50:59 69° E 22:55:18 10° NNE
Cosmos 1066 Rocket 4.2 22:46:47 10° N 22:52:34 81° ENE 22:53:46 57° SSE
SL-27 R/B 3.5 22:53:08 40° NW 22:53:08 40° NW 22:56:01 10° N
Meteor 1-23 Rocket 4.2 22:48:30 10° N 22:54:23 80° E 22:55:43 55° SSE
Cosmos 1864 Rocket 4.4 22:53:22 48° S 22:55:15 89° W 23:01:33 10° N
Thor Agena Rocket 3.4 22:51:02 10° NNE 22:56:09 87° ESE 22:56:59 63° S
CENTAUR R/B 2.7 22:51:50 17° SW 22:56:42 75° NW 23:04:01 10° NE
Cosmos 968 Rocket 4.4 22:59:01 32° E 22:59:01 32° E 23:03:12 10° NE
Cosmos 967 Rocket 4.5 22:53:18 10° NW 22:59:38 67° WSW 23:01:03 52° S
Cosmos 44 3.6 22:56:38 10° NW 23:01:25 53° WSW 23:01:32 53° SW
Cosmos 1802 Rocket 4.4 22:58:41 34° SW 23:01:26 61° WNW 23:07:46 10° N
Spot 4 4.2 23:06:33 49° WSW 23:07:01 52° W 23:11:45 10° NNW
Cosmos 1378 3.7 23:09:25 10° N 23:12:29 56° N 23:12:29 56° N
USA 267 4.2 23:08:13 10° ENE 23:14:27 48° N 23:20:40 10° W
Cosmos 2233 Rocket 3.9 23:14:31 54° S 23:16:07 85° E 23:22:30 10° N
Cosmos 1842 4.4 23:14:20 10° N 23:17:41 35° ENE 23:17:41 35° ENE
Cosmos 1908 Rocket 4.0 23:18:33 50° ENE 23:18:33 50° ENE 23:22:26 10° NNE
SL-16 R/B 3.6 23:20:58 10° NW 23:25:23 24° WSW 23:26:08 23° WSW
Lacrosse 5 3.2 23:21:31 10° WNW 23:24:41 26° WSW 23:24:41 26° WSW
Cosmos 2322 3.6 23:22:58 10° NNW 23:28:40 83° WSW 23:29:31 65° S
Cosmos 1378 Rocket 3.6 23:24:30 10° NNW 23:28:49 69° W 23:28:49 69° W
NOSS 3-2 (C) 4.3 23:23:35 10° WSW 23:29:20 50° NW 23:36:00 10° NE
Cosmos 1833 4.1 23:28:44 62° SSW 23:29:45 89° ESE 23:35:28 10° NNE
COSMOS 2487 3.7 23:32:14 38° NNE 23:32:14 38° NNE 23:34:31 10° NNE
Cosmos 2084 Rocket 4.3 23:35:29 39° W 23:36:30 47° NW 23:40:42 10° NE
Cosmos 2219 Rocket 2.1 23:31:30 10° NNW 23:37:14 83° ENE 23:38:19 60° SE
EO 1 Del DPAF 4.5 23:36:33 10° N 23:39:56 34° WNW 23:39:56 34° WNW
Cosmos 1975 Rocket 3.4 23:37:56 10° N 23:42:24 58° ENE 23:42:25 58° ENE
Cosmos 2333 4.2 23:37:18 10° NNW 23:43:04 67° WSW 23:43:44 61° SSW
Cosmos 1503 Rocket 4.2 23:45:55 55° ESE 23:46:09 55° ESE 23:51:25 10° NNE
Cosmos 1242 Rocket 4.5 23:44:02 10° NW 23:46:08 23° WNW 23:46:08 23° WNW
Cosmos 2322 Rocket 3.8 23:43:34 10° NW 23:47:34 20° W 23:48:01 20° WSW
YAOGAN 11 4.1 23:48:26 82° E 23:48:30 82° ENE 23:53:07 10° NNW
Helios 1A 3.1 23:49:48 72° NW 23:49:48 72° NW 23:53:41 10° NNW
ERBS 4.1 23:48:00 10° NW 23:51:00 30° NNE 23:51:02 30° NNE
SL-16 R/B 4.3 23:46:15 10° ESE 23:51:09 26° NE 23:56:08 10° N
SL-16 R/B 4.3 23:48:19 10° N 23:52:48 23° NE 23:57:16 10° E
Cosmos 1486 Rocket 3.9 23:52:11 68° SW 23:52:49 81° WNW 23:58:03 10° NNE
CZ-2D R/B 4.4 23:50:45 10° ENE 23:53:11 13° E 23:54:54 11° ESE
Cosmos 1544 3.9 23:54:38 49° N 23:54:38 49° N 23:57:24 10° N
Sich 1 Rocket 4.2 23:55:31 44° E 23:55:31 44° E 23:59:27 10° NNE
